Location: Roland
(31.1349°N, 85.4372°W)
Time: 03:55:19
(UTC+00:00)

Courier 1B - Pass Details

Date: 24 April 2021
Orbit: 962 x 1209 km, 28.3° (Epoch: 07 May)

Event Time Altitude Azimuth Distance (km) Brightness Sun altitude
Rises 20:57:14 0° 274° (W) 3,677 11.3 41.3°
Reaches altitude 10° 21:00:03 10° 267° (W) 2,708 11.0 40.7°
Maximum altitude 21:06:05 41° 199° (SSW) 1,357 9.1 39.5°
Drops below altitude 10° 21:12:05 10° 131° (SE) 2,691 9.6 38.2°
Sets 21:14:53 0° 124° (SE) 3,651 10.1 37.6°
